When you browse on this site, cookies collect data to enhance your experience and personalize the content and advertising you see.
Visit our Privacy Policy to learn more. By continuing to use the site, you agree to this use of cookies and data.
  • în România
  • Lista ţărilor
  • Pe 7 zile
  • Temperatura apei
  • Hartă satelitară
  • Meteo pe hartă
  • Widget-uri
  • user-avatar
    Intrare

    Meteo pe oră la Escaldes-Engordany

    Astăzi, 24 Iunie, Luni

    Timp Temperatura Precipitaţii Vânt Presiune Umiditate
    00:00 +16°C° 0 mm 1 m/s 640 mmHg 67%
    01:00 +16°C° 0 mm 1 m/s 640 mmHg 69%
    02:00 +15°C° 0 mm 1 m/s 639 mmHg 71%
    03:00 +15°C° 0 mm 2 m/s 639 mmHg 73%
    04:00 +16°C° 0 mm 2 m/s 639 mmHg 71%
    05:00 +17°C° 0 mm 2 m/s 640 mmHg 68%
    06:00 +18°C° 0 mm 2 m/s 640 mmHg 66%
    07:00 +20°C° 0 mm 2 m/s 641 mmHg 55%
    08:00 +23°C° 0 mm 2 m/s 642 mmHg 45%
    09:00 +25°C° 0 mm 2 m/s 643 mmHg 34%
    10:00 +26°C° 0 mm 2 m/s 643 mmHg 33%
    11:00 +27°C° 0 mm 2 m/s 643 mmHg 31%
    12:00 +28°C° 0 mm 3 m/s 644 mmHg 29%
    13:00 +28°C° 0 mm 2 m/s 643 mmHg 30%
    14:00 +28°C° 0 mm 2 m/s 643 mmHg 32%
    15:00 +28°C° 0 mm 2 m/s 643 mmHg 33%
    16:00 +26°C° 0 mm 2 m/s 642 mmHg 40%
    17:00 +25°C° 0 mm 2 m/s 642 mmHg 48%
    18:00 +23°C° 0 mm 1 m/s 641 mmHg 55%
    19:00 +22°C° 0 mm 1 m/s 641 mmHg 56%
    20:00 +20°C° 0 mm 1 m/s 641 mmHg 57%
    21:00 +18°C° 0 mm 1 m/s 640 mmHg 58%
    22:00 +18°C° 0 mm 1 m/s 641 mmHg 56%
    23:00 +18°C° 0 mm 1 m/s 641 mmHg 54%

    Mâine, 25 Iunie, Marţi

    Timp Temperatura Precipitaţii Vânt Presiune Umiditate
    00:00 +16°C° 0 mm 1 m/s 641 mmHg 52%
    01:00 +16°C° 0 mm 1 m/s 641 mmHg 52%
    02:00 +16°C° 0 mm 1 m/s 641 mmHg 52%
    03:00 +16°C° 0 mm 1 m/s 641 mmHg 52%
    04:00 +18°C° 0 mm 1 m/s 641 mmHg 53%
    05:00 +19°C° 0 mm 1 m/s 642 mmHg 54%
    06:00 +20°C° 0 mm 1 m/s 642 mmHg 54%
    07:00 +22°C° 0 mm 1 m/s 643 mmHg 48%
    08:00 +24°C° 0 mm 2 m/s 644 mmHg 42%
    09:00 +26°C° 0 mm 2 m/s 645 mmHg 36%
    10:00 +28°C° 0 mm 2 m/s 645 mmHg 33%
    11:00 +29°C° 0 mm 2 m/s 646 mmHg 31%
    12:00 +30°C° 0 mm 3 m/s 646 mmHg 28%
    13:00 +30°C° 0 mm 2 m/s 646 mmHg 28%
    14:00 +30°C° 0 mm 2 m/s 646 mmHg 28%
    15:00 +30°C° 0 mm 2 m/s 646 mmHg 29%
    16:00 +29°C° 0 mm 2 m/s 645 mmHg 36%
    17:00 +28°C° 0 mm 1 m/s 645 mmHg 43%
    18:00 +27°C° 0 mm 1 m/s 644 mmHg 51%
    19:00 +25°C° 0 mm 1 m/s 644 mmHg 52%
    20:00 +23°C° 0 mm 1 m/s 644 mmHg 53%
    21:00 +20°C° 0 mm 2 m/s 644 mmHg 54%
    22:00 +19°C° 0 mm 2 m/s 644 mmHg 50%
    23:00 +19°C° 0 mm 2 m/s 643 mmHg 47%

    Poimâine, 26 Iunie, Miercuri

    Timp Temperatura Precipitaţii Vânt Presiune Umiditate
    00:00 +19°C° 0 mm 2 m/s 643 mmHg 43%
    01:00 +18°C° 0 mm 2 m/s 643 mmHg 43%
    02:00 +18°C° 0 mm 2 m/s 643 mmHg 43%
    03:00 +18°C° 0 mm 2 m/s 643 mmHg 43%
    04:00 +19°C° 0 mm 2 m/s 643 mmHg 42%
    05:00 +19°C° 0 mm 2 m/s 644 mmHg 42%
    06:00 +20°C° 0 mm 2 m/s 644 mmHg 42%
    07:00 +24°C° 0 mm 2 m/s 645 mmHg 35%
    08:00 +27°C° 0 mm 2 m/s 646 mmHg 28%
    09:00 +30°C° 0 mm 2 m/s 647 mmHg 21%
    10:00 +31°C° 0 mm 3 m/s 647 mmHg 20%
    11:00 +33°C° 0 mm 3 m/s 647 mmHg 19%
    12:00 +34°C° 0 mm 4 m/s 648 mmHg 18%
    13:00 +34°C° 0 mm 4 m/s 647 mmHg 18%
    14:00 +34°C° 0 mm 3 m/s 647 mmHg 19%
    15:00 +33°C° 0 mm 3 m/s 647 mmHg 20%
    16:00 +31°C° 0 mm 3 m/s 646 mmHg 27%
    17:00 +29°C° 0 mm 2 m/s 646 mmHg 34%
    18:00 +28°C° 0 mm 2 m/s 645 mmHg 41%
    19:00 +26°C° 0 mm 2 m/s 645 mmHg 42%
    20:00 +24°C° 0 mm 2 m/s 644 mmHg 43%
    21:00 +20°C° 0 mm 2 m/s 644 mmHg 44%
    22:00 +20°C° 0 mm 2 m/s 644 mmHg 40%
    23:00 +20°C° 0 mm 2 m/s 644 mmHg 36%

    27 Iunie, Joi

    Timp Temperatura Precipitaţii Vânt Presiune Umiditate
    00:00 +20°C° 0 mm 2 m/s 644 mmHg 32%
    01:00 +20°C° 0 mm 2 m/s 644 mmHg 31%
    02:00 +20°C° 0 mm 2 m/s 644 mmHg 29%
    03:00 +20°C° 0 mm 2 m/s 643 mmHg 28%
    04:00 +21°C° 0 mm 2 m/s 644 mmHg 31%
    05:00 +22°C° 0 mm 1 m/s 644 mmHg 35%
    06:00 +23°C° 0 mm 1 m/s 644 mmHg 38%
    07:00 +26°C° 0 mm 1 m/s 645 mmHg 33%
    08:00 +28°C° 0 mm 1 m/s 646 mmHg 28%
    09:00 +31°C° 0 mm 1 m/s 647 mmHg 23%
    10:00 +32°C° 0 mm 2 m/s 647 mmHg 21%
    11:00 +34°C° 0 mm 2 m/s 647 mmHg 20%
    12:00 +35°C° 0 mm 2 m/s 648 mmHg 18%
    13:00 +35°C° 0 mm 2 m/s 647 mmHg 19%
    14:00 +34°C° 0 mm 1 m/s 647 mmHg 19%
    15:00 +33°C° 0 mm 1 m/s 646 mmHg 20%
    16:00 +32°C° 0 mm 1 m/s 646 mmHg 27%
    17:00 +31°C° 0 mm 1 m/s 645 mmHg 34%
    18:00 +29°C° 0 mm 1 m/s 645 mmHg 41%
    19:00 +27°C° 0 mm 1 m/s 644 mmHg 40%
    20:00 +25°C° 0 mm 1 m/s 644 mmHg 39%
    21:00 +23°C° 0 mm 1 m/s 643 mmHg 38%
    22:00 +23°C° 0 mm 2 m/s 643 mmHg 35%
    23:00 +21°C° 0 mm 2 m/s 643 mmHg 32%

    28 Iunie, Vineri

    Timp Temperatura Precipitaţii Vânt Presiune Umiditate
    00:00 +21°C° 0 mm 2 m/s 643 mmHg 30%
    01:00 +21°C° 0 mm 2 m/s 643 mmHg 27%
    02:00 +20°C° 0 mm 2 m/s 642 mmHg 25%
    03:00 +20°C° 0 mm 2 m/s 642 mmHg 23%
    04:00 +21°C° 0 mm 2 m/s 642 mmHg 25%
    05:00 +21°C° 0 mm 2 m/s 642 mmHg 28%
    06:00 +23°C° 0 mm 2 m/s 643 mmHg 30%
    07:00 +26°C° 0 mm 1 m/s 644 mmHg 26%
    08:00 +29°C° 0 mm 1 m/s 645 mmHg 22%
    09:00 +32°C° 0 mm 1 m/s 646 mmHg 18%
    10:00 +33°C° 0 mm 1 m/s 646 mmHg 18%
    11:00 +33°C° 0 mm 1 m/s 646 mmHg 17%
    12:00 +35°C° 0 mm 2 m/s 646 mmHg 17%
    13:00 +35°C° 0 mm 2 m/s 645 mmHg 18%
    14:00 +34°C° 0 mm 2 m/s 645 mmHg 19%
    15:00 +34°C° 0 mm 2 m/s 644 mmHg 20%
    16:00 +32°C° 0 mm 2 m/s 644 mmHg 28%
    17:00 +30°C° 0 mm 1 m/s 643 mmHg 36%
    18:00 +29°C° 0 mm 1 m/s 643 mmHg 43%
    19:00 +26°C° 0 mm 1 m/s 642 mmHg 45%
    20:00 +24°C° 0 mm 1 m/s 642 mmHg 47%
    21:00 +22°C° 0 mm 1 m/s 641 mmHg 49%
    22:00 +22°C° 0 mm 1 m/s 641 mmHg 46%
    23:00 +21°C° 0 mm 1 m/s 641 mmHg 44%

    29 Iunie, Sâmbătă

    Timp Temperatura Precipitaţii Vânt Presiune Umiditate
    00:00 +21°C° 0 mm 1 m/s 641 mmHg 41%
    01:00 +21°C° 0 mm 1 m/s 641 mmHg 40%
    02:00 +21°C° 0 mm 1 m/s 641 mmHg 39%
    03:00 +21°C° 0 mm 1 m/s 640 mmHg 39%
    04:00 +21°C° 0 mm 1 m/s 641 mmHg 41%
    05:00 +22°C° 0 mm 1 m/s 641 mmHg 43%
    06:00 +23°C° 0 mm 1 m/s 642 mmHg 45%
    07:00 +26°C° 0 mm 1 m/s 643 mmHg 38%
    08:00 +28°C° 0 mm 1 m/s 644 mmHg 31%
    09:00 +31°C° 0 mm 1 m/s 645 mmHg 24%
    10:00 +32°C° 0 mm 1 m/s 645 mmHg 23%
    11:00 +32°C° 0 mm 2 m/s 645 mmHg 22%
    12:00 +34°C° 0 mm 2 m/s 645 mmHg 21%
    13:00 +34°C° 0 mm 2 m/s 645 mmHg 23%
    14:00 +32°C° 0 mm 2 m/s 644 mmHg 25%
    15:00 +31°C° 0 mm 2 m/s 644 mmHg 27%
    16:00 +30°C° 0 mm 2 m/s 643 mmHg 34%
    17:00 +29°C° 0 mm 1 m/s 643 mmHg 41%
    18:00 +27°C° 0 mm 1 m/s 643 mmHg 48%
    19:00 +25°C° 0 mm 1 m/s 643 mmHg 49%
    20:00 +23°C° 0 mm 1 m/s 642 mmHg 51%
    21:00 +19°C° 0 mm 0 m/s 642 mmHg 52%
    22:00 +21°C° 0 mm 1 m/s 642 mmHg 50%
    23:00 +21°C° 0 mm 1 m/s 642 mmHg 48%
    Arată mai mult